Time,TemperatureF,DewpointF,PressureIn,WindDirection,WindDirectionDegrees,WindSpeedMPH,WindSpeedGustMPH,Humidity,HourlyPrecipIn,Conditions,Clouds,dailyrainin,SoftwareType,DateUTC
2013-03-24 00:03:00,55.5,51.1,29.99,NNE,27,0.0,0.0,85,0.00,,,0.00,Wunderground v.1.15,2013-03-24 07:03:00,
2013-03-24 00:08:00,55.4,51.0,29.99,NNE,27,0.0,1.0,85,0.00,,,0.00,Wunderground v.1.15,2013-03-24 07:08:00,
2013-03-24 00:17:00,55.2,50.8,29.99,NNE,27,1.0,1.0,85,0.00,,,0.00,Wunderground v.1.15,2013-03-24 07:17:00,
2013-03-24 00:23:00,55.1,51.0,29.99,NNE,27,1.0,1.0,86,0.00,,,0.00,Wunderground v.1.15,2013-03-24 07:23:00,
2013-03-24 00:28:00,55.0,50.9,29.99,NNE,27,0.0,1.0,86,0.00,,,0.00,Wunderground v.1.15,2013-03-24 07:28:00,
2013-03-24 00:33:00,54.9,51.1,29.99,NNE,27,0.0,0.0,87,0.00,,,0.00,Wunderground v.1.15,2013-03-24 07:33:00,
2013-03-24 00:38:00,54.8,51.0,29.99,NNE,27,0.0,0.0,87,0.00,,,0.00,Wunderground v.1.15,2013-03-24 07:38:00,
2013-03-24 00:47:00,54.6,51.4,29.99,NNE,27,0.0,0.0,89,0.00,,,0.00,Wunderground v.1.15,2013-03-24 07:47:00,
2013-03-24 00:57:00,54.4,51.5,29.99,NNE,27,0.0,0.0,90,0.00,,,0.00,Wunderground v.1.15,2013-03-24 07:57:00,
2013-03-24 01:07:00,54.3,51.4,29.99,NNE,27,0.0,0.0,90,0.00,,,0.00,Wunderground v.1.15,2013-03-24 08:07:00,
2013-03-24 01:12:00,54.4,51.8,29.99,ENE,57,0.0,0.0,91,0.00,,,0.00,Wunderground v.1.15,2013-03-24 08:12:00,
2013-03-24 01:17:00,54.6,52.6,29.99,ENE,57,1.0,2.0,93,0.00,,,0.00,Wunderground v.1.15,2013-03-24 08:17:00,
2013-03-24 01:22:00,54.8,53.1,29.99,SE,126,1.0,1.0,94,0.00,,,0.00,Wunderground v.1.15,2013-03-24 08:22:00,
2013-03-24 01:32:00,55.3,53.6,29.98,East,98,2.0,2.0,94,0.00,,,0.00,Wunderground v.1.15,2013-03-24 08:32:00,
2013-03-24 01:42:00,55.6,53.9,29.98,ESE,117,2.0,2.0,94,0.00,,,0.00,Wunderground v.1.15,2013-03-24 08:42:00,
2013-03-24 01:52:00,55.9,54.2,29.98,ESE,123,1.0,2.0,94,0.00,,,0.00,Wunderground v.1.15,2013-03-24 08:52:00,
2013-03-24 02:02:00,56.0,54.3,29.98,ESE,113,2.0,2.0,94,0.00,,,0.00,Wunderground v.1.15,2013-03-24 09:02:00,
2013-03-24 02:07:00,56.1,54.4,29.98,East,98,1.0,2.0,94,0.00,,,0.00,Wunderground v.1.15,2013-03-24 09:07:00,
2013-03-24 02:12:00,56.1,54.1,29.98,East,88,2.0,2.0,93,0.00,,,0.00,Wunderground v.1.15,2013-03-24 09:12:00,
2013-03-24 02:17:00,56.1,54.1,29.98,East,88,2.0,2.0,93,0.00,,,0.00,Wunderground v.1.15,2013-03-24 09:17:00,
2013-03-24 02:22:00,56.2,54.2,29.98,East,88,1.0,1.0,93,0.00,,,0.00,Wunderground v.1.15,2013-03-24 09:22:00,
2013-03-24 02:27:00,56.2,53.9,29.98,East,95,1.0,2.0,92,0.00,,,0.00,Wunderground v.1.15,2013-03-24 09:27:00,
2013-03-24 02:37:00,56.2,53.9,29.98,East,95,1.0,2.0,92,0.00,,,0.00,Wunderground v.1.15,2013-03-24 09:37:00,
2013-03-24 02:42:00,56.2,53.9,29.98,SE,126,1.0,1.0,92,0.00,,,0.00,Wunderground v.1.15,2013-03-24 09:42:00,
2013-03-24 02:52:00,56.3,54.0,29.97,SE,126,0.0,2.0,92,0.00,,,0.00,Wunderground v.1.15,2013-03-24 09:52:00,
2013-03-24 03:02:00,56.3,53.7,29.97,SE,125,1.0,1.0,91,0.00,,,0.00,Wunderground v.1.15,2013-03-24 10:02:00,
2013-03-24 03:07:00,56.3,53.7,29.97,SE,125,0.0,1.0,91,0.00,,,0.00,Wunderground v.1.15,2013-03-24 10:07:00,
2013-03-24 03:12:00,56.3,53.4,29.97,SE,125,0.0,2.0,90,0.00,,,0.00,Wunderground v.1.15,2013-03-24 10:12:00,
2013-03-24 03:17:00,56.3,53.4,29.97,East,79,1.0,2.0,90,0.00,,,0.00,Wunderground v.1.15,2013-03-24 10:17:00,
2013-03-24 03:27:00,56.2,53.3,29.97,East,79,0.0,1.0,90,0.00,,,0.00,Wunderground v.1.15,2013-03-24 10:27:00,
2013-03-24 03:32:00,56.0,53.1,29.97,ESE,111,1.0,1.0,90,0.00,,,0.00,Wunderground v.1.15,2013-03-24 10:32:00,
2013-03-24 03:37:00,55.9,53.0,29.97,SE,136,1.0,1.0,90,0.00,,,0.00,Wunderground v.1.15,2013-03-24 10:37:00,
2013-03-24 03:47:00,55.5,52.6,29.97,SE,136,1.0,1.0,90,0.00,,,0.00,Wunderground v.1.15,2013-03-24 10:47:00,
2013-03-24 03:52:00,55.3,52.7,29.97,SE,136,0.0,0.0,91,0.00,,,0.00,Wunderground v.1.15,2013-03-24 10:52:00,
2013-03-24 03:57:00,55.1,52.5,29.97,SE,136,0.0,0.0,91,0.00,,,0.00,Wunderground v.1.15,2013-03-24 10:57:00,
2013-03-24 04:02:00,55.0,52.4,29.97,SE,136,0.0,0.0,91,0.00,,,0.00,Wunderground v.1.15,2013-03-24 11:02:00,
2013-03-24 04:07:00,54.8,52.2,29.97,SE,136,0.0,0.0,91,0.00,,,0.00,Wunderground v.1.15,2013-03-24 11:07:00,
2013-03-24 04:17:00,54.5,52.2,29.97,SE,136,0.0,0.0,92,0.00,,,0.00,Wunderground v.1.15,2013-03-24 11:17:00,
2013-03-24 04:22:00,54.3,52.0,29.97,SE,136,0.0,0.0,92,0.00,,,0.00,Wunderground v.1.15,2013-03-24 11:22:00,
2013-03-24 04:32:00,54.1,51.8,29.97,SE,136,0.0,2.0,92,0.00,,,0.00,Wunderground v.1.15,2013-03-24 11:32:00,
2013-03-24 04:42:00,53.6,51.3,29.97,East,100,1.0,1.0,92,0.00,,,0.00,Wunderground v.1.15,2013-03-24 11:42:00,
2013-03-24 04:47:00,53.5,51.2,29.97,East,100,0.0,1.0,92,0.00,,,0.00,Wunderground v.1.15,2013-03-24 11:47:00,
2013-03-24 04:52:00,53.2,50.9,29.97,East,100,0.0,0.0,92,0.00,,,0.00,Wunderground v.1.15,2013-03-24 11:52:00,
2013-03-24 04:57:00,53.0,50.7,29.97,East,100,0.0,0.0,92,0.00,,,0.00,Wunderground v.1.15,2013-03-24 11:57:00,
2013-03-24 05:07:00,52.6,50.3,29.97,East,100,0.0,0.0,92,0.00,,,0.00,Wunderground v.1.15,2013-03-24 12:07:00,
2013-03-24 05:17:00,52.3,50.3,29.97,East,100,0.0,1.0,93,0.00,,,0.00,Wunderground v.1.15,2013-03-24 12:17:00,
2013-03-24 05:27:00,52.4,50.4,29.98,East,100,0.0,1.0,93,0.00,,,0.00,Wunderground v.1.15,2013-03-24 12:27:00,
2013-03-24 05:37:00,52.5,50.8,29.98,East,100,0.0,0.0,94,0.00,,,0.00,Wunderground v.1.15,2013-03-24 12:37:00,
2013-03-24 05:42:00,52.8,51.1,29.98,East,100,0.0,0.0,94,0.00,,,0.00,Wunderground v.1.15,2013-03-24 12:42:00,
2013-03-24 05:52:00,53.1,51.4,29.98,East,100,0.0,0.0,94,0.00,,,0.00,Wunderground v.1.15,2013-03-24 12:52:00,
2013-03-24 05:57:00,53.3,51.6,29.98,East,100,0.0,0.0,94,0.00,,,0.00,Wunderground v.1.15,2013-03-24 12:57:00,
2013-03-24 06:07:00,53.8,52.1,29.98,East,100,1.0,1.0,94,0.00,,,0.00,Wunderground v.1.15,2013-03-24 13:07:00,
2013-03-24 06:17:00,54.2,52.2,29.98,East,100,0.0,1.0,93,0.00,,,0.00,Wunderground v.1.15,2013-03-24 13:17:00,
2013-03-24 06:22:00,54.4,52.4,29.98,East,100,1.0,1.0,93,0.00,,,0.00,Wunderground v.1.15,2013-03-24 13:22:00,
2013-03-24 06:27:00,54.6,52.6,29.98,East,100,1.0,1.0,93,0.00,,,0.00,Wunderground v.1.15,2013-03-24 13:27:00,
2013-03-24 06:37:00,54.7,52.4,29.98,SE,140,1.0,3.0,92,0.00,,,0.00,Wunderground v.1.15,2013-03-24 13:37:00,
2013-03-24 06:47:00,54.8,52.5,29.98,SE,140,0.0,1.0,92,0.00,,,0.00,Wunderground v.1.15,2013-03-24 13:47:00,
2013-03-24 06:52:00,54.8,52.5,29.98,SE,140,0.0,0.0,92,0.00,,,0.00,Wunderground v.1.15,2013-03-24 13:52:00,
2013-03-24 06:57:00,54.8,52.5,29.98,SE,140,0.0,1.0,92,0.00,,,0.00,Wunderground v.1.15,2013-03-24 13:57:00,
2013-03-24 07:02:00,54.9,52.6,29.98,SE,140,0.0,1.0,92,0.00,,,0.00,Wunderground v.1.15,2013-03-24 14:02:00,
2013-03-24 07:12:00,55.0,52.4,29.98,ESE,107,1.0,2.0,91,0.00,,,0.00,Wunderground v.1.15,2013-03-24 14:12:00,
2013-03-24 07:22:00,54.9,52.3,29.98,ESE,107,1.0,1.0,91,0.00,,,0.00,Wunderground v.1.15,2013-03-24 14:22:00,
2013-03-24 07:27:00,54.9,52.3,29.99,South,181,0.0,1.0,91,0.00,,,0.00,Wunderground v.1.15,2013-03-24 14:27:00,
2013-03-24 07:32:00,55.0,52.4,29.99,ESE,108,0.0,0.0,91,0.00,,,0.00,Wunderground v.1.15,2013-03-24 14:32:00,
2013-03-24 07:42:00,55.1,52.5,29.99,East,82,1.0,1.0,91,0.00,,,0.00,Wunderground v.1.15,2013-03-24 14:42:00,
2013-03-24 07:52:00,55.1,52.5,29.99,East,82,1.0,2.0,91,0.00,,,0.00,Wunderground v.1.15,2013-03-24 14:52:00,
2013-03-24 07:57:00,55.1,52.5,29.99,East,82,2.0,2.0,91,0.00,,,0.00,Wunderground v.1.15,2013-03-24 14:57:00,
2013-03-24 08:07:00,55.1,52.5,29.99,NE,50,2.0,4.0,91,0.00,,,0.00,Wunderground v.1.15,2013-03-24 15:07:00,
2013-03-24 08:17:00,54.9,52.3,30.00,NE,42,3.0,4.0,91,0.00,,,0.00,Wunderground v.1.15,2013-03-24 15:17:00,
2013-03-24 08:22:00,54.9,52.3,30.00,NNE,19,3.0,3.0,91,0.00,,,0.00,Wunderground v.1.15,2013-03-24 15:22:00,
2013-03-24 08:27:00,55.0,52.4,30.00,NNE,28,2.0,3.0,91,0.00,,,0.00,Wunderground v.1.15,2013-03-24 15:27:00,
2013-03-24 08:37:00,54.7,52.1,30.00,NNE,28,3.0,3.0,91,0.00,,,0.00,Wunderground v.1.15,2013-03-24 15:37:00,
2013-03-24 08:42:00,54.8,52.2,30.00,NE,41,3.0,6.0,91,0.00,,,0.00,Wunderground v.1.15,2013-03-24 15:42:00,
2013-03-24 08:52:00,54.9,52.3,30.01,North,10,3.0,3.0,91,0.00,,,0.00,Wunderground v.1.15,2013-03-24 15:52:00,
2013-03-24 08:57:00,54.9,52.3,30.01,NNE,12,3.0,3.0,91,0.00,,,0.00,Wunderground v.1.15,2013-03-24 15:57:00,
2013-03-24 09:07:00,55.2,52.3,30.01,NW,319,2.0,3.0,90,0.00,,,0.00,Wunderground v.1.15,2013-03-24 16:07:00,
2013-03-24 09:12:00,55.5,52.6,30.01,North,360,1.0,3.0,90,0.00,,,0.00,Wunderground v.1.15,2013-03-24 16:12:00,
2013-03-24 09:17:00,55.9,52.4,30.01,NNW,343,2.0,3.0,88,0.00,,,0.00,Wunderground v.1.15,2013-03-24 16:17:00,
2013-03-24 09:27:00,57.0,52.5,30.01,NW,312,2.0,3.0,85,0.00,,,0.00,Wunderground v.1.15,2013-03-24 16:27:00,
2013-03-24 09:37:00,57.8,53.3,30.00,WNW,302,1.0,3.0,85,0.00,,,0.00,Wunderground v.1.15,2013-03-24 16:37:00,
2013-03-24 09:42:00,58.0,53.2,30.00,NE,49,1.0,3.0,84,0.00,,,0.00,Wunderground v.1.15,2013-03-24 16:42:00,
2013-03-24 09:47:00,58.4,53.3,30.00,WNW,298,1.0,3.0,83,0.00,,,0.00,Wunderground v.1.15,2013-03-24 16:47:00,
2013-03-24 09:57:00,59.6,53.8,30.00,NNW,329,2.0,2.0,81,0.00,,,0.00,Wunderground v.1.15,2013-03-24 16:57:00,
2013-03-24 10:02:00,59.8,54.0,30.00,WNW,292,2.0,2.0,81,0.00,,,0.00,Wunderground v.1.15,2013-03-24 17:02:00,
2013-03-24 10:12:00,60.3,54.1,30.00,WSW,242,3.0,3.0,80,0.00,,,0.00,Wunderground v.1.15,2013-03-24 17:12:00,
2013-03-24 10:17:00,60.9,54.0,30.00,WNW,290,2.0,3.0,78,0.00,,,0.00,Wunderground v.1.15,2013-03-24 17:17:00,
2013-03-24 10:27:00,61.8,53.8,29.99,WNW,296,3.0,5.0,75,0.00,,,0.00,Wunderground v.1.15,2013-03-24 17:27:00,
2013-03-24 10:37:00,62.5,54.1,29.99,SW,217,3.0,3.0,74,0.00,,,0.00,Wunderground v.1.15,2013-03-24 17:37:00,
2013-03-24 10:42:00,63.1,54.7,29.99,WNW,293,3.0,3.0,74,0.00,,,0.00,Wunderground v.1.15,2013-03-24 17:42:00,
2013-03-24 10:47:00,63.4,54.6,29.99,West,269,2.0,3.0,73,0.00,,,0.00,Wunderground v.1.15,2013-03-24 17:47:00,
2013-03-24 10:57:00,63.6,54.4,29.98,WSW,244,3.0,5.0,72,0.00,,,0.00,Wunderground v.1.15,2013-03-24 17:57:00,
2013-03-24 11:02:00,64.1,54.5,29.98,West,261,3.0,3.0,71,0.00,,,0.00,Wunderground v.1.15,2013-03-24 18:02:00,
2013-03-24 11:07:00,64.4,54.4,29.98,West,275,3.0,3.0,70,0.00,,,0.00,Wunderground v.1.15,2013-03-24 18:07:00,
2013-03-24 11:12:00,64.8,54.4,29.98,SW,230,2.0,2.0,69,0.00,,,0.00,Wunderground v.1.15,2013-03-24 18:12:00,
2013-03-24 11:22:00,66.1,54.8,29.98,WNW,300,2.0,2.0,67,0.00,,,0.00,Wunderground v.1.15,2013-03-24 18:22:00,
2013-03-24 11:27:00,66.6,54.5,29.98,SW,232,2.0,4.0,65,0.00,,,0.00,Wunderground v.1.15,2013-03-24 18:27:00,
2013-03-24 11:32:00,66.8,54.7,29.97,SW,218,2.0,4.0,65,0.00,,,0.00,Wunderground v.1.15,2013-03-24 18:32:00,
2013-03-24 11:42:00,67.4,54.8,29.97,West,274,2.0,2.0,64,0.00,,,0.00,Wunderground v.1.15,2013-03-24 18:42:00,
2013-03-24 11:47:00,67.9,54.4,29.97,West,278,2.0,2.0,62,0.00,,,0.00,Wunderground v.1.15,2013-03-24 18:47:00,
2013-03-24 11:52:00,68.4,54.4,29.97,SW,214,2.0,6.0,61,0.00,,,0.00,Wunderground v.1.15,2013-03-24 18:52:00,
2013-03-24 12:02:00,69.4,54.4,29.96,SW,230,3.0,3.0,59,0.00,,,0.00,Wunderground v.1.15,2013-03-24 19:02:00,
2013-03-24 12:07:00,69.6,54.2,29.96,SW,232,2.0,3.0,58,0.00,,,0.00,Wunderground v.1.15,2013-03-24 19:07:00,
2013-03-24 12:17:00,70.0,54.5,29.96,South,182,2.0,2.0,58,0.00,,,0.00,Wunderground v.1.15,2013-03-24 19:17:00,
2013-03-24 12:22:00,70.6,54.6,29.95,SW,221,3.0,3.0,57,0.00,,,0.00,Wunderground v.1.15,2013-03-24 19:22:00,
2013-03-24 12:27:00,71.1,53.6,29.95,SSE,151,2.0,3.0,54,0.00,,,0.00,Wunderground v.1.15,2013-03-24 19:27:00,
2013-03-24 12:37:00,71.6,53.0,29.95,South,185,3.0,3.0,52,0.00,,,0.00,Wunderground v.1.15,2013-03-24 19:37:00,
2013-03-24 12:42:00,72.1,53.0,29.95,South,179,3.0,3.0,51,0.00,,,0.00,Wunderground v.1.15,2013-03-24 19:42:00,
2013-03-24 12:47:00,72.6,51.8,29.94,SE,143,3.0,3.0,48,0.00,,,0.00,Wunderground v.1.15,2013-03-24 19:47:00,
2013-03-24 12:57:00,72.6,51.8,29.93,ESE,123,3.0,4.0,48,0.00,,,0.00,Wunderground v.1.15,2013-03-24 19:57:00,
2013-03-24 13:07:00,73.4,51.9,29.93,SSW,194,3.0,5.0,47,0.00,,,0.00,Wunderground v.1.15,2013-03-24 20:07:00,
2013-03-24 13:12:00,74.3,51.0,29.93,WSW,255,3.0,4.0,44,0.00,,,0.00,Wunderground v.1.15,2013-03-24 20:12:00,
2013-03-24 13:17:00,74.8,52.0,29.93,SE,125,3.0,4.0,45,0.00,,,0.00,Wunderground v.1.15,2013-03-24 20:17:00,
2013-03-24 13:22:00,75.3,51.3,29.93,South,188,2.0,6.0,43,0.00,,,0.00,Wunderground v.1.15,2013-03-24 20:22:00,
2013-03-24 13:27:00,75.0,51.0,29.92,SW,216,2.0,6.0,43,0.00,,,0.00,Wunderground v.1.15,2013-03-24 20:27:00,
2013-03-24 13:37:00,74.9,49.6,29.92,South,189,4.0,4.0,41,0.00,,,0.00,Wunderground v.1.15,2013-03-24 20:37:00,
2013-03-24 13:42:00,75.1,48.4,29.92,SE,126,3.0,3.0,39,0.00,,,0.00,Wunderground v.1.15,2013-03-24 20:42:00,
2013-03-24 13:47:00,75.7,49.7,29.91,East,86,3.0,3.0,40,0.00,,,0.00,Wunderground v.1.15,2013-03-24 20:47:00,
2013-03-24 13:57:00,77.1,50.2,29.91,SSE,165,2.0,3.0,39,0.00,,,0.00,Wunderground v.1.15,2013-03-24 20:57:00,
2013-03-24 14:07:00,77.8,46.4,29.90,ENE,63,3.0,3.0,33,0.00,,,0.00,Wunderground v.1.15,2013-03-24 21:07:00,
2013-03-24 14:12:00,77.7,48.6,29.90,SW,233,2.0,2.0,36,0.00,,,0.00,Wunderground v.1.15,2013-03-24 21:12:00,
2013-03-24 14:22:00,76.9,49.4,29.90,West,267,3.0,3.0,38,0.00,,,0.00,Wunderground v.1.15,2013-03-24 21:22:00,
2013-03-24 14:27:00,77.2,51.7,29.90,WSW,250,3.0,3.0,41,0.00,,,0.00,Wunderground v.1.15,2013-03-24 21:27:00,
2013-03-24 14:37:00,77.6,50.7,29.89,West,273,3.0,4.0,39,0.00,,,0.00,Wunderground v.1.15,2013-03-24 21:37:00,
2013-03-24 14:47:00,77.8,49.4,29.89,West,281,4.0,7.0,37,0.00,,,0.00,Wunderground v.1.15,2013-03-24 21:47:00,
2013-03-24 14:52:00,78.1,52.5,29.88,South,188,4.0,5.0,41,0.00,,,0.00,Wunderground v.1.15,2013-03-24 21:52:00,
2013-03-24 14:57:00,78.0,53.0,29.88,SSW,206,4.0,5.0,42,0.00,,,0.00,Wunderground v.1.15,2013-03-24 21:57:00,
2013-03-24 15:02:00,78.4,53.4,29.88,SW,231,5.0,6.0,42,0.00,,,0.00,Wunderground v.1.15,2013-03-24 22:02:00,
2013-03-24 15:07:00,78.6,52.9,29.88,SSW,194,4.0,6.0,41,0.00,,,0.00,Wunderground v.1.15,2013-03-24 22:07:00,
2013-03-24 15:12:00,78.9,51.8,29.88,SW,223,4.0,4.0,39,0.00,,,0.00,Wunderground v.1.15,2013-03-24 22:12:00,
2013-03-24 15:22:00,79.4,53.6,29.87,WSW,253,5.0,9.0,41,0.00,,,0.00,Wunderground v.1.15,2013-03-24 22:22:00,
2013-03-24 15:27:00,79.3,53.6,29.87,South,176,5.0,9.0,41,0.00,,,0.00,Wunderground v.1.15,2013-03-24 22:27:00,
2013-03-24 15:37:00,78.3,55.2,29.87,West,277,6.0,10.0,45,0.00,,,0.00,Wunderground v.1.15,2013-03-24 22:37:00,
2013-03-24 15:42:00,77.5,55.1,29.87,WSW,238,7.0,7.0,46,0.00,,,0.00,Wunderground v.1.15,2013-03-24 22:42:00,
2013-03-24 15:47:00,76.9,55.7,29.88,SW,223,7.0,7.0,48,0.00,,,0.00,Wunderground v.1.15,2013-03-24 22:47:00,
2013-03-24 15:57:00,75.5,55.6,29.88,SW,228,6.0,11.0,50,0.00,,,0.00,Wunderground v.1.15,2013-03-24 22:57:00,
2013-03-24 16:02:00,74.9,55.6,29.87,West,265,7.0,7.0,51,0.00,,,0.00,Wunderground v.1.15,2013-03-24 23:02:00,
2013-03-24 16:07:00,74.7,55.9,29.87,SW,221,6.0,7.0,52,0.00,,,0.00,Wunderground v.1.15,2013-03-24 23:07:00,
2013-03-24 16:17:00,73.4,55.2,29.87,SW,236,6.0,6.0,53,0.00,,,0.00,Wunderground v.1.15,2013-03-24 23:17:00,
2013-03-24 16:27:00,73.1,55.5,29.87,West,266,5.0,6.0,54,0.00,,,0.00,Wunderground v.1.15,2013-03-24 23:27:00,
2013-03-24 16:32:00,73.2,55.6,29.87,West,279,4.0,4.0,54,0.00,,,0.00,Wunderground v.1.15,2013-03-24 23:32:00,
2013-03-24 16:37:00,73.0,55.4,29.87,WNW,300,4.0,8.0,54,0.00,,,0.00,Wunderground v.1.15,2013-03-24 23:37:00,
2013-03-24 16:42:00,72.8,55.7,29.87,WSW,257,4.0,5.0,55,0.00,,,0.00,Wunderground v.1.15,2013-03-24 23:42:00,
2013-03-24 16:47:00,73.0,54.9,29.87,West,281,4.0,5.0,53,0.00,,,0.00,Wunderground v.1.15,2013-03-24 23:47:00,
2013-03-24 16:57:00,72.4,55.3,29.87,WSW,239,4.0,4.0,55,0.00,,,0.00,Wunderground v.1.15,2013-03-24 23:57:00,
2013-03-24 17:07:00,71.9,54.3,29.87,WSW,242,4.0,6.0,54,0.00,,,0.00,Wunderground v.1.15,2013-03-25 00:07:00,
2013-03-24 17:12:00,71.7,54.2,29.86,SW,225,4.0,7.0,54,0.00,,,0.00,Wunderground v.1.15,2013-03-25 00:12:00,
2013-03-24 17:22:00,70.6,53.1,29.87,West,265,5.0,5.0,54,0.00,,,0.00,Wunderground v.1.15,2013-03-25 00:22:00,
2013-03-24 17:27:00,70.8,53.3,29.86,West,269,4.0,5.0,54,0.00,,,0.00,Wunderground v.1.15,2013-03-25 00:27:00,
2013-03-24 17:37:00,70.4,52.4,29.86,WNW,296,4.0,4.0,53,0.00,,,0.00,Wunderground v.1.15,2013-03-25 00:37:00,
2013-03-24 17:47:00,70.0,52.1,29.86,WSW,257,4.0,4.0,53,0.00,,,0.00,Wunderground v.1.15,2013-03-25 00:47:00,
2013-03-24 17:52:00,70.0,52.1,29.86,SSW,206,3.0,3.0,53,0.00,,,0.00,Wunderground v.1.15,2013-03-25 00:52:00,
2013-03-24 17:57:00,69.9,50.4,29.86,WSW,238,4.0,4.0,50,0.00,,,0.00,Wunderground v.1.15,2013-03-25 00:57:00,
2013-03-24 18:07:00,69.6,51.2,29.86,WNW,294,4.0,4.0,52,0.00,,,0.00,Wunderground v.1.15,2013-03-25 01:07:00,
2013-03-24 18:12:00,69.5,51.6,29.86,WNW,289,3.0,3.0,53,0.00,,,0.00,Wunderground v.1.15,2013-03-25 01:12:00,
2013-03-24 18:22:00,69.1,50.7,29.86,West,270,3.0,3.0,52,0.00,,,0.00,Wunderground v.1.15,2013-03-25 01:22:00,
2013-03-24 18:27:00,68.8,50.5,29.87,WNW,283,3.0,3.0,52,0.00,,,0.00,Wunderground v.1.15,2013-03-25 01:27:00,
2013-03-24 18:32:00,68.6,50.3,29.87,West,276,3.0,4.0,52,0.00,,,0.00,Wunderground v.1.15,2013-03-25 01:32:00,
2013-03-24 18:37:00,68.3,50.5,29.87,West,275,3.0,4.0,53,0.00,,,0.00,Wunderground v.1.15,2013-03-25 01:37:00,
2013-03-24 18:47:00,67.6,50.4,29.87,WNW,284,4.0,4.0,54,0.00,,,0.00,Wunderground v.1.15,2013-03-25 01:47:00,
2013-03-24 18:52:00,67.3,50.1,29.87,SW,229,3.0,4.0,54,0.00,,,0.00,Wunderground v.1.15,2013-03-25 01:52:00,
2013-03-24 19:02:00,66.8,50.6,29.87,WSW,243,3.0,3.0,56,0.00,,,0.00,Wunderground v.1.15,2013-03-25 02:02:00,
2013-03-24 19:07:00,66.5,51.3,29.88,WNW,298,2.0,3.0,58,0.00,,,0.00,Wunderground v.1.15,2013-03-25 02:07:00,
2013-03-24 19:17:00,65.9,51.2,29.87,West,261,2.0,2.0,59,0.00,,,0.00,Wunderground v.1.15,2013-03-25 02:17:00,
2013-03-24 19:22:00,65.7,51.4,29.87,West,264,2.0,2.0,60,0.00,,,0.00,Wunderground v.1.15,2013-03-25 02:22:00,
2013-03-24 19:32:00,65.2,51.4,29.87,WNW,298,1.0,3.0,61,0.00,,,0.00,Wunderground v.1.15,2013-03-25 02:32:00,
2013-03-24 19:37:00,64.9,51.1,29.88,WNW,300,2.0,3.0,61,0.00,,,0.00,Wunderground v.1.15,2013-03-25 02:37:00,
2013-03-24 19:47:00,64.6,50.4,29.88,WNW,300,1.0,2.0,60,0.00,,,0.00,Wunderground v.1.15,2013-03-25 02:47:00,
2013-03-24 19:52:00,64.5,51.2,29.88,SW,224,2.0,3.0,62,0.00,,,0.00,Wunderground v.1.15,2013-03-25 02:52:00,
2013-03-24 20:02:00,64.2,50.9,29.88,West,274,2.0,3.0,62,0.00,,,0.00,Wunderground v.1.15,2013-03-25 03:02:00,
2013-03-24 20:12:00,63.7,50.4,29.88,WNW,287,1.0,1.0,62,0.00,,,0.00,Wunderground v.1.15,2013-03-25 03:12:00,
2013-03-24 20:22:00,63.4,50.1,29.89,West,271,1.0,2.0,62,0.00,,,0.00,Wunderground v.1.15,2013-03-25 03:22:00,
2013-03-24 20:32:00,63.1,50.7,29.89,West,271,1.0,1.0,64,0.00,,,0.00,Wunderground v.1.15,2013-03-25 03:32:00,
2013-03-24 20:37:00,62.8,50.9,29.89,West,271,1.0,1.0,65,0.00,,,0.00,Wunderground v.1.15,2013-03-25 03:37:00,
2013-03-24 20:42:00,62.6,51.1,29.89,West,271,1.0,1.0,66,0.00,,,0.00,Wunderground v.1.15,2013-03-25 03:42:00,
2013-03-24 20:52:00,62.3,51.2,29.89,West,271,0.0,1.0,67,0.00,,,0.00,Wunderground v.1.15,2013-03-25 03:52:00,
2013-03-24 20:57:00,62.1,51.0,29.89,West,271,0.0,1.0,67,0.00,,,0.00,Wunderground v.1.15,2013-03-25 03:57:00,
2013-03-24 21:02:00,62.0,51.3,29.89,West,271,0.0,0.0,68,0.00,,,0.00,Wunderground v.1.15,2013-03-25 04:02:00,
2013-03-24 21:07:00,61.8,51.1,29.90,West,271,0.0,0.0,68,0.00,,,0.00,Wunderground v.1.15,2013-03-25 04:07:00,
2013-03-24 21:12:00,61.5,51.2,29.90,West,271,0.0,0.0,69,0.00,,,0.00,Wunderground v.1.15,2013-03-25 04:12:00,
2013-03-24 21:17:00,61.2,50.9,29.90,West,271,0.0,0.0,69,0.00,,,0.00,Wunderground v.1.15,2013-03-25 04:17:00,
2013-03-24 21:22:00,61.0,51.5,29.90,West,271,0.0,0.0,71,0.00,,,0.00,Wunderground v.1.15,2013-03-25 04:22:00,
2013-03-24 21:32:00,60.8,51.3,29.90,West,271,0.0,0.0,71,0.00,,,0.00,Wunderground v.1.15,2013-03-25 04:32:00,
2013-03-24 21:37:00,60.5,51.4,29.90,West,271,0.0,0.0,72,0.00,,,0.00,Wunderground v.1.15,2013-03-25 04:37:00,
2013-03-24 21:42:00,60.4,51.3,29.90,West,271,0.0,0.0,72,0.00,,,0.00,Wunderground v.1.15,2013-03-25 04:42:00,
2013-03-24 21:47:00,60.2,51.5,29.91,West,271,0.0,0.0,73,0.00,,,0.00,Wunderground v.1.15,2013-03-25 04:47:00,
2013-03-24 21:57:00,59.7,51.4,29.90,West,271,0.0,0.0,74,0.00,,,0.00,Wunderground v.1.15,2013-03-25 04:57:00,
2013-03-24 22:02:00,59.5,51.2,29.91,West,271,0.0,0.0,74,0.00,,,0.00,Wunderground v.1.15,2013-03-25 05:02:00,
2013-03-24 22:12:00,59.3,51.0,29.91,West,271,0.0,0.0,74,0.00,,,0.00,Wunderground v.1.15,2013-03-25 05:12:00,
2013-03-24 22:17:00,59.1,50.8,29.91,West,271,0.0,0.0,74,0.00,,,0.00,Wunderground v.1.15,2013-03-25 05:17:00,
2013-03-24 22:27:00,58.8,50.9,29.91,West,271,0.0,1.0,75,0.00,,,0.00,Wunderground v.1.15,2013-03-25 05:27:00,
2013-03-24 22:37:00,58.4,50.5,29.92,West,271,0.0,0.0,75,0.00,,,0.00,Wunderground v.1.15,2013-03-25 05:37:00,
2013-03-24 22:42:00,58.1,50.6,29.92,West,271,0.0,0.0,76,0.00,,,0.00,Wunderground v.1.15,2013-03-25 05:42:00,
2013-03-24 22:52:00,57.8,50.6,29.92,West,271,0.0,0.0,77,0.00,,,0.00,Wunderground v.1.15,2013-03-25 05:52:00,
2013-03-24 22:57:00,57.6,50.8,29.92,West,271,0.0,0.0,78,0.00,,,0.00,Wunderground v.1.15,2013-03-25 05:57:00,
2013-03-24 23:07:00,57.3,50.5,29.92,West,271,0.0,0.0,78,0.00,,,0.00,Wunderground v.1.15,2013-03-25 06:07:00,
2013-03-24 23:12:00,57.1,50.6,29.92,West,271,0.0,0.0,79,0.00,,,0.00,Wunderground v.1.15,2013-03-25 06:12:00,
2013-03-24 23:17:00,56.9,50.8,29.92,West,271,0.0,0.0,80,0.00,,,0.00,Wunderground v.1.15,2013-03-25 06:17:00,
2013-03-24 23:27:00,56.6,50.5,29.92,West,271,0.0,0.0,80,0.00,,,0.00,Wunderground v.1.15,2013-03-25 06:27:00,
2013-03-24 23:37:00,56.3,50.5,29.92,West,271,0.0,0.0,81,0.00,,,0.00,Wunderground v.1.15,2013-03-25 06:37:00,
2013-03-24 23:42:00,56.2,50.1,29.92,West,271,0.0,0.0,80,0.00,,,0.00,Wunderground v.1.15,2013-03-25 06:42:00,
2013-03-24 23:52:00,56.0,50.3,29.92,West,271,0.0,0.0,81,0.00,,,0.00,Wunderground v.1.15,2013-03-25 06:52:00,
2013-03-24 23:57:00,55.8,49.7,29.92,West,271,0.0,0.0,80,0.00,,,0.00,Wunderground v.1.15,2013-03-25 06:57:00,